Location: ???????
(55.4362°N, 38.1183°E)
Time: 14:40:22
(UTC+00:00)

Oscar 11 - Pass Details

Date: 09 December 2021
Orbit: 611 x 625 km, 97.6° (Epoch: 25 January)

Event Time Altitude Azimuth Distance (km) Brightness Sun altitude
Rises 01:28:15 0° 28° (NNE) 2,919 11.0 -34.3°
Reaches altitude 10° 01:31:42 10° 57° (ENE) 2,002 10.4 -33.8°
Maximum altitude 01:33:39 13° 84° (E) 1,818 10.2 -33.6°
Drops below altitude 10° 01:35:36 10° 111° (ESE) 1,991 10.3 -33.3°
Sets 01:39:00 0° 140° (SE) 2,886 10.9 -32.8°
